Regional Weather Roundup
Issued by NWS Bismarck, ND

Home | Current Version | Previous Version | Text Only | Print | Product List | Glossary On
Versions: 1 2 3 4 5 6 7 8 9 10 11 12 13 14 15 16 17 18 19 20 21 22 23 24 25 26 27 28 29 30 31 32 33 34 35 36 37 38 39 40 41 42 43 44 45 46 47 48 49 50
000
ASUS43 KBIS 030110
RWRBIS

NWR BROADCAST TEXT
NATIONAL WEATHER SERVICE BISMARCK ND
700 PM CST MON MAR 02 2015

NOTE: "FAIR" INDICATES FEW OR NO CLOUDS BELOW 12,000 FEET WITH NO
SIGNIFICANT WEATHER AND/OR OBSTRUCTIONS TO VISIBILITY.


CITY           SKY/WX    TMP DP  RH WIND       PRES   REMARKS
WILLISTON      CLOUDY    22  15  75 N23G31    29.82R WCI   6
MINOT          PTCLDY    31  20  63 W8        29.71S
MINOT AFB      PTCLDY    24  22  91 NW7       29.71R WCI  16
BISMARCK       MOCLDY    34  24  67 CALM      29.73S
DICKINSON      PTCLDY    31  14  49 NW13      29.69S
GARRISON         N/A     28  19  69 NW8       29.71R WCI  20
HETTINGER ARPT MOCLDY    31  13  47 W3        29.72R
JAMESTOWN      MOCLDY    28  20  71 S18       29.77F WCI  15
BEACH          FAIR      32  21  64 NW15      29.77R
CARRINGTON     FAIR      25  23  93 MISG      29.76R
CROSBY         FLURRIES  18  16  93 NW30G40   29.80R WCI  -2
HARVEY         FAIR      25  21  86 S7        29.73F WCI  17
HAZEN          FAIR      30  19  64 CALM      29.72S
LINTON         FAIR      32  27  80 SE16      29.72F
MANDAN         FAIR      32  23  69 S7        29.72S
OAKES            N/A     27  19  74 SE18G24   29.85F WCI  13
RUGBY          FAIR      25  19  80 S9        29.72F WCI  15
TIOGA          CLOUDY    23  21  93 NW23G35   29.78R WCI   7
WATFORD CITY   FAIR      25  19  80 NW29G36   29.77R WCI   8
$$

CITY           SKY/WX    TMP DP  RH WIND       PRES   REMARKS
GRAND FORKS    PTCLDY    26  17  68 S20G26    29.85F WCI  12
GRAND FORKS AF CLEAR     26  17  71 S20G25    29.82F WCI  12
DEVILS LAKE    CLEAR     27  19  74 S13       29.77F WCI  16
FARGO          CLOUDY    29  17  61 S22G35    29.92F WCI  15
CANDO          FAIR      25  19  80 S14       29.75R WCI  13
CAVALIER       FAIR      27  18  69 S17       29.81S WCI  14
GWINNER        CLEAR     30  21  69 S17       29.89F WCI  18
ROLLA          FAIR      21  19  93 SW12      29.71S WCI   9
WALHALLA         N/A     27  19  74 S13       29.80S WCI  16
$$

CITY           SKY/WX    TMP DP  RH WIND       PRES   REMARKS
ABERDEEN       MOCLDY    29  18  63 S23       29.87F WCI  15
MOBRIDGE       MOCLDY    37  22  54 SE9       29.71F
BUFFALO          N/A     37  16  42 NW13      29.65S
RAPID CITY     CLOUDY    39  23  52 N9        29.67F
GLASGOW        CLOUDY    22  11  62 NW25      29.94R WCI   5
SIDNEY         CLOUDY    27  19  74 NW21G32   29.87R WCI  13
WOLF POINT     CLOUDY    24  13  62 N16G24    29.91R WCI  11
GLENDIVE       MOCLDY    30  19  64 NW26G32   29.81R WCI  16
MILES CITY     MOCLDY    34  19  54 N18       29.79R
BAKER          MOCLDY    36  17  46 NW17      29.74R
$$

CITY           SKY/WX    TMP DP  RH WIND       PRES   REMARKS
BILLINGS       MOCLDY    31  18  58 NE23G32   29.79R WCI  18
GREAT FALLS    CLOUDY    19  12  74 N22       30.00R WCI   2
REGINA         FLURRIES  14  10  85 NW32G38   29.87R WCI  -7
ESTEVAN        CLOUDY    16  12  86 NW29G36   29.78R BLWGSNOWWCI  -4
$$



USA.gov is the U.S. government's official web portal to all federal, state and local government web resources and services.